This demonstration page uses our WeatherBlox Daily Observations layout. Learn more.

39.29038, -76.61219

Hourly Observations for October 27, 2015

Temp ( °F °C ) Dew Point ( °F °C ) Humidity (%) Winds ( mph kmh ) Pressure ( in mb ) Visibility ( mi km ) Precip ( " mm )
12:54 am 00:54 undefined 48 8.9 39 3.9 71 71 undefined N/A 30.49 1033 N/A 0 0
1:54 am 01:54 undefined 47 8.3 39 3.9 74 74 undefined N/A 30.49 1033 N/A 0 0
2:54 am 02:54 undefined 48 8.9 39 3.9 71 71 undefined N/A 30.48 1032 N/A 0 0
3:54 am 03:54 undefined 47 8.3 40 4.4 77 77 undefined N/A 30.47 1032 N/A 0 0
4:54 am 04:54 undefined 47 8.3 40 4.4 77 77 undefined N/A 30.48 1032 N/A 0 0
5:54 am 05:54 undefined 47 8.3 41 5 80 80 undefined N/A 30.48 1032 N/A 0 0
6:54 am 06:54 undefined 47 8.3 41 5 80 80 undefined N/A 30.48 1032 N/A 0 0
7:54 am 07:54 undefined 47 8.3 40 4.4 77 77 undefined N/A 30.49 1032 N/A 0 0
8:54 am 08:54 undefined 49 9.4 41 5 74 74 undefined N/A 30.51 1033 N/A 0 0
9:54 am 09:54 undefined 51 10.6 41 5 69 69 undefined N/A 30.52 1034 N/A 0 0
10:54 am 10:54 undefined 53 11.7 42 5.6 66 66 undefined N/A 30.53 1034 N/A 0 0
11:54 am 11:54 undefined 56 13.3 44 6.7 65 65 undefined N/A 30.51 1033 N/A 0 0
12:54 pm 12:54 undefined 57 13.9 45 7.2 64 64 undefined N/A 30.47 1032 N/A 0 0
1:54 pm 13:54 undefined 58 14.4 47 8.3 67 67 undefined N/A 30.44 1031 N/A 0 0
2:54 pm 14:54 undefined 58 14.4 47 8.3 67 67 undefined N/A 30.42 1030 N/A 0 0
3:54 pm 15:54 undefined 59 15 48 8.9 67 67 undefined N/A 30.41 1030 N/A 0 0
4:54 pm 16:54 undefined 59 15 48 8.9 67 67 undefined N/A 30.41 1030 N/A 0 0
5:54 pm 17:54 undefined 59 15 48 8.9 67 67 undefined N/A 30.39 1029 N/A 0 0
6:54 pm 18:54 undefined 58 14.4 48 8.9 70 70 undefined N/A 30.4 1029 N/A 0 0
7:54 pm 19:54 undefined 58 14.4 48 8.9 70 70 undefined N/A 30.41 1030 N/A 0 0
8:54 pm 20:54 undefined 57 13.9 47 8.3 69 69 undefined N/A 30.4 1030 N/A 0 0
9:54 pm 21:54 undefined 56 13.3 47 8.3 72 72 undefined N/A 30.39 1029 N/A 0 0
10:54 pm 22:54 undefined 56 13.3 48 8.9 75 75 undefined N/A 30.38 1029 N/A 0 0
11:54 pm 23:54 undefined 56 13.3 49 9.4 77 77 undefined N/A 30.36 1028 N/A 0 0

Powered by AerisWeather